DW3637 Weather Reports


time (UTC)temp
F
wind
direction
speed
knots
gust
knots
rain 1hr
in
rain 24hr
in
rain mn
in
humidity
%
barometer
mb
20260507033517 53 0.0 1.7 0.01 0.18 0.18 91 1007.3
20260507032517 53 0.0 2.6 0.01 0.18 0.18 91 1007.4
20260507031537 54 315 0.9 2.6 0.02 0.18 0.18 92 1007.4
20260507030517 54 0.0 0.9 0.02 0.18 0.18 92 1007.2
20260507025537 55 0.0 1.7 0.01 0.17 0.17 92 1007.2
20260507024516 55 0.0 3.5 0.01 0.17 0.17 93 1007.1
20260507023517 56 0.0 0.9 0.02 0.17 0.17 93 1007.0
20260507022516 56 0.0 0.9 0.02 0.17 0.17 93 1007.0
20260507021517 56 0.0 1.7 0.01 0.16 0.16 93 1006.8
20260507020517 56 0.0 1.7 0.02 0.16 0.16 93 1006.7
20260507015516 57 315 0.9 2.6 0.05 0.16 0.16 93 1006.4
20260507014516 57 315 2.6 6.1 0.05 0.16 0.16 94 1006.5
20260507013517 57 0.0 0.9 0.04 0.15 0.15 95 1006.7
20260507012516 57 0.0 0.0 0.04 0.15 0.15 94 1006.4
20260507011516 58 23 0.9 4.3 0.04 0.15 0.15 94 1006.0
20260507010517 59 315 1.7 5.2 0.03 0.14 0.14 93 1006.2
20260507005516 59 248 2.6 8.7 0.00 0.11 0.11 95 1005.4
20260507004516 59 248 1.7 7.0 0.00 0.11 0.11 95 1005.3
20260507003516 59 248 2.6 7.0 0.00 0.11 0.11 95 1005.0
20260507002516 59 248 1.7 4.3 0.00 0.11 0.11 95 1005.2
20260507001516 60 248 2.6 7.0 0.00 0.11 0.11 95 1005.2
20260507000516 60 248 1.7 6.1 0.00 0.11 0.11 95 1005.2
20260506235516 59 248 2.6 6.1 0.00 0.11 0.11 95 1005.2
20260506234516 59 248 2.6 6.1 0.00 0.11 0.11 95 1005.0
20260506233516 59 248 1.7 5.2 0.00 0.11 0.11 95 1005.0
20260506232516 59 248 1.7 6.1 0.00 0.11 0.11 95 1004.9
20260506231516 59 248 2.6 6.1 0.00 0.11 0.11 95 1004.9
20260506230516 59 248 2.6 7.0 0.01 0.11 0.11 95 1004.8
20260506225516 59 225 1.7 4.3 0.01 0.11 0.11 95 1004.8
20260506224516 60 248 2.6 5.2 0.02 0.11 0.11 95 1004.6
20260506223516 60 248 1.7 5.2 0.02 0.11 0.11 95 1004.7
20260506222536 60 225 2.6 7.0 0.02 0.11 0.11 95 1004.7
20260506221516 60 225 1.7 4.3 0.02 0.11 0.11 95 1004.7
20260506220516 60 225 0.9 4.3 0.01 0.10 0.10 94 1004.7
20260506215516 60 225 2.6 7.0 0.02 0.10 0.10 94 1004.8
20260506214536 60 225 2.6 4.3 0.01 0.09 0.09 94 1004.7
20260506213524 60 248 0.9 3.5 0.01 0.09 0.09 94 1004.8
20260506212516 60 248 3.5 8.7 0.01 0.09 0.09 94 1004.8
20260506211519 60 225 2.6 9.6 0.02 0.09 0.09 94 1004.8
20260506210516 60 248 3.5 10.4 0.03 0.09 0.09 94 1004.7
20260506205536 60 248 2.6 7.8 0.02 0.08 0.08 94 1004.9
20260506204516 60 248 1.7 5.2 0.03 0.08 0.08 94 1004.9
20260506203520 60 248 1.7 5.2 0.03 0.08 0.08 94 1005.1
20260506202600 60 225 0.9 2.6 0.03 0.08 0.08 93 1005.2
20260506201520 60 248 1.7 7.8 0.03 0.07 0.07 93 1005.2
20260506200516 60 225 2.6 6.1 0.02 0.06 0.06 92 1005.3
20260506195517 60 248 2.6 7.0 0.02 0.06 0.06 92 1005.4
20260506194518 60 248 3.5 7.0 0.01 0.05 0.05 92 1005.5
20260506193516 60 248 2.6 9.6 0.01 0.05 0.05 91 1005.7
20260506192516 60 248 3.5 8.7 0.02 0.05 0.05 91 1005.8
20260506191516 61 248 2.6 7.0 0.01 0.04 0.04 91 1005.9
20260506190516 61 225 2.6 7.0 0.01 0.04 0.04 91 1006.0
20260506185517 61 248 4.3 12.2 0.02 0.04 0.04 90 1006.1
20260506184516 61 248 2.6 7.8 0.02 0.04 0.04 91 1006.0
20260506183556 61 248 1.7 7.8 0.03 0.04 0.04 90 1006.0
20260506182516 61 248 0.9 3.5 0.03 0.03 0.03 90 1006.2
20260506181516 61 248 1.7 5.2 0.03 0.03 0.03 90 1006.2
20260506180516 62 225 2.6 7.8 0.03 0.03 0.03 89 1005.8
20260506175516 62 248 1.7 5.2 0.02 0.02 0.02 88 1006.1
20260506174516 63 225 2.6 5.2 0.02 0.02 0.02 86 1006.1
20260506173516 63 248 1.7 6.1 0.01 0.01 0.01 84 1006.7
20260506172529 64 248 1.7 5.2 0.00 0.00 0.00 82 1006.7
20260506171537 65 225 2.6 7.0 0.00 0.00 0.00 79 1007.1
20260506170536 66 225 4.3 10.4 0.00 0.00 0.00 77 1007.1
20260506165537 67 248 3.5 12.2 0.00 0.00 0.00 75 1007.0
20260506164515 68 248 3.5 10.4 0.00 0.00 0.00 72 1006.9
20260506163516 69 248 4.3 9.6 0.00 0.00 0.00 70 1006.7
20260506162516 69 248 2.6 4.3 0.00 0.00 0.00 69 1006.8
20260506161516 69 248 2.6 6.1 0.00 0.00 0.00 69 1006.8
20260506160524 69 248 1.7 5.2 0.00 0.00 0.00 71 1007.1
20260506155516 68 248 3.5 8.7 0.00 0.00 0.00 71 1007.3
20260506154516 68 248 3.5 7.8 0.00 0.00 0.00 72 1007.5
20260506153556 68 248 2.6 7.0 0.00 0.00 0.00 72 1007.5
20260506152538 67 270 2.6 6.1 0.00 0.00 0.00 73 1007.7
20260506151535 67 248 1.7 6.1 0.00 0.00 0.00 74 1007.7
20260506150518 66 225 3.5 7.8 0.00 0.00 0.00 75 1007.8
20260506145515 65 248 2.6 6.1 0.00 0.00 0.00 76 1007.9
20260506144517 65 270 1.7 6.1 0.00 0.00 0.00 77 1008.0
20260506143537 65 248 1.7 4.3 0.00 0.00 0.00 77 1008.0
20260506142517 65 248 3.5 9.6 0.00 0.00 0.00 78 1008.2
20260506141517 65 248 2.6 7.8 0.00 0.00 0.00 79 1008.1
20260506140523 64 225 3.5 7.8 0.00 0.00 0.00 79 1008.2
20260506135520 64 248 2.6 7.0 0.00 0.00 0.00 80 1008.0
20260506134537 64 248 3.5 7.8 0.00 0.00 0.00 80 1008.0
20260506133517 63 248 1.7 5.2 0.00 0.00 0.00 81 1007.9
20260506132517 63 225 1.7 4.3 0.00 0.00 0.00 82 1008.0
20260506131517 62 248 3.5 6.1 0.00 0.00 0.00 82 1008.3
20260506130517 62 248 0.9 2.6 0.00 0.00 0.00 84 1008.1
20260506125518 61 225 2.6 7.0 0.00 0.00 0.00 83 1008.1
20260506124537 61 248 3.5 9.6 0.00 0.00 0.00 83 1008.5
20260506123537 61 225 1.7 5.2 0.00 0.00 0.00 84 1008.5
20260506122517 61 248 1.7 4.3 0.00 0.00 0.00 84 1008.7
20260506121517 61 248 0.9 3.5 0.00 0.00 0.00 84 1008.5
20260506120519 60 225 2.6 9.6 0.00 0.00 0.00 84 1008.5
20260506115517 60 248 1.7 7.8 0.00 0.00 0.00 84 1008.5
20260506114537 60 225 2.6 5.2 0.00 0.00 0.00 85 1008.5
20260506113517 60 225 1.7 6.1 0.00 0.00 0.00 85 1008.7
20260506112517 60 248 2.6 7.0 0.00 0.00 0.00 85 1008.6
20260506111517 60 225 1.7 6.1 0.00 0.00 0.00 86 1008.5
20260506110517 59 248 1.7 5.2 0.00 0.00 0.00 87 1009.0
20260506105518 59 248 1.7 5.2 0.00 0.00 0.00 87 1008.8
20260506104517 59 248 2.6 5.2 0.00 0.00 0.00 87 1008.9
20260506103517 59 248 1.7 3.5 0.00 0.00 0.00 86 1008.8
20260506102517 59 248 2.6 4.3 0.00 0.00 0.00 87 1008.6
20260506101517 58 248 1.7 7.0 0.00 0.00 0.00 87 1008.5
20260506100517 58 248 1.7 3.5 0.00 0.00 0.00 86 1008.5
20260506095519 58 248 1.7 4.3 0.00 0.00 0.00 86 1008.4
20260506094517 59 248 1.7 5.2 0.00 0.00 0.00 86 1008.5
20260506093517 59 225 1.7 6.1 0.00 0.00 0.00 85 1008.6
20260506092517 59 248 1.7 3.5 0.00 0.00 0.00 85 1008.5
20260506091517 59 248 0.9 2.6 0.00 0.00 0.00 84 1008.4
20260506090517 59 248 2.6 7.0 0.00 0.00 0.00 84 1008.6
20260506085518 59 248 2.6 4.3 0.00 0.00 0.00 84 1008.5
20260506084537 59 225 1.7 7.0 0.00 0.00 0.00 83 1008.6
20260506083518 60 248 1.7 3.5 0.00 0.00 0.00 83 1008.7
20260506082517 60 248 2.6 6.1 0.00 0.00 0.00 82 1008.7
20260506081542 60 248 1.7 3.5 0.00 0.00 0.00 82 1008.7
20260506080537 60 225 0.9 2.6 0.00 0.00 0.00 82 1008.7
20260506073518 60 248 1.7 6.1 0.00 0.00 0.00 80 1008.6
20260506072516 61 248 2.6 6.1 0.00 0.00 0.00 80 1008.7
20260506071517 61 225 0.9 3.5 0.00 0.00 0.00 79 1008.6
20260506070537 61 225 1.7 3.5 0.00 0.00 0.00 79 1008.6
20260506062517 62 203 0.9 3.5 0.00 0.00 0.00 76 1008.2
20260506061517 63 248 3.5 7.0 0.00 0.00 0.00 76 1008.2
20260506060556 63 225 2.6 10.4 0.00 0.00 0.00 75 1008.3
20260506050517 64 225 3.5 8.7 0.00 0.00 0.00 70 1008.4
20260506044516 64 248 1.7 6.1 0.00 0.00 0.00 70 1008.6
20260506043516 64 225 1.7 4.3 0.00 0.00 0.00 70 1008.5
20260506042557 64 248 1.7 5.2 0.00 0.00 0.00 70 1008.5
20260506041518 64 248 1.7 7.0 0.00 0.00 0.00 69 1008.6
20260506040517 64 248 1.7 5.2 0.00 0.00 0.00 69 1008.6
20260506035517 64 225 1.7 4.3 0.00 0.00 0.00 69 1008.6
20260506034517 64 225 1.7 6.1 0.00 0.00 0.00 69 1008.6